CW2551 Weather Reports


Display with metric or nautical units.
time (UTC)temp
F
wind
direction
speed
MPH
gust
MPH
rain 1hr
in
rain 24hr
in
rain mn
in
humidity
%
barometer
mb
20260905182603 63 288 2.0 6.0 0.00 0.00 0.00 64 1015.3
20260905182103 64 343 4.0 9.0 0.00 0.00 0.00 64 1015.3
20260905182020 63 355 0.0 1.0 0.00 0.00 0.00 65 1015.4
20260905181604 63 355 0.0 1.0 0.00 0.00 0.00 65 1015.4
20260905181104 63 351 3.0 5.0 0.00 0.00 0.00 63 1015.5
20260905181020 64 19 2.0 5.0 0.00 0.00 0.00 64 1015.6
20260905180604 64 19 2.0 5.0 0.00 0.00 0.00 64 1015.6
20260905180104 64 346 1.0 5.0 0.00 0.00 0.00 64 1015.6
20260905180022 64 0 3.0 6.0 0.00 0.00 0.00 64 1015.7
20260905175604 64 0 3.0 6.0 0.00 0.00 0.00 64 1015.7
20260905175104 64 7 0.0 0.0 0.00 0.00 0.00 64 1015.7
20260905175020 63 11 0.0 3.0 0.00 0.00 0.00 67 1015.8
20260905174604 63 11 0.0 3.0 0.00 0.00 0.00 67 1015.8
20260905174104 63 28 0.0 3.0 0.00 0.00 0.00 66 1015.9
20260905173603 63 351 3.0 6.0 0.00 0.00 0.00 66 1015.9
20260905172104 62 5 0.0 1.0 0.00 0.00 0.00 68 1016.0
20260905172019 61 5 1.0 2.0 0.00 0.00 0.00 68 1016.0
20260905171604 61 5 1.0 2.0 0.00 0.00 0.00 68 1016.0
20260905171103 61 0 1.0 3.0 0.00 0.00 0.00 70 1016.0
20260905171020 61 0 0.0 0.0 0.00 0.00 0.00 70 1016.0
20260905170604 61 0 0.0 0.0 0.00 0.00 0.00 70 1016.0
20260905170104 60 0 1.0 3.0 0.00 0.00 0.00 71 1016.0
20260905170022 60 286 0.0 0.0 0.00 0.00 0.00 72 1016.0
20260905165604 60 286 0.0 0.0 0.00 0.00 0.00 72 1016.0
20260905165020 60 355 1.0 3.0 0.00 0.00 0.00 73 1016.3
20260905164604 60 355 1.0 3.0 0.00 0.00 0.00 73 1016.3
20260905163103 58 27 1.0 3.0 0.00 0.00 0.00 75 1016.5
20260905163022 58 25 0.0 3.0 0.00 0.00 0.00 76 1016.4
20260905162604 58 25 0.0 3.0 0.00 0.00 0.00 76 1016.4
20260905161603 58 89 0.0 0.0 0.00 0.00 0.00 77 1016.5
20260905161104 57 97 0.0 3.0 0.00 0.00 0.00 77 1016.6
20260905160604 57 112 1.0 3.0 0.00 0.00 0.00 78 1016.6
20260905155604 57 115 0.0 0.0 0.00 0.00 0.00 79 1016.7
20260905155104 56 115 0.0 0.0 0.00 0.00 0.00 80 1016.6
20260905155020 56 117 0.0 0.0 0.00 0.00 0.00 80 1016.6
20260905154019 55 163 0.0 0.0 0.00 0.00 0.00 83 1016.6
20260905153603 55 163 0.0 0.0 0.00 0.00 0.00 83 1016.6
20260905153104 54 163 0.0 0.0 0.00 0.00 0.00 83 1016.6
20260905152604 54 163 0.0 0.0 0.00 0.00 0.00 85 1016.6
20260905152104 53 163 0.0 0.0 0.00 0.00 0.00 87 1016.6
20260905152020 53 163 0.0 0.0 0.00 0.00 0.00 87 1016.6
20260905151604 53 163 0.0 0.0 0.00 0.00 0.00 87 1016.6
20260905151103 52 163 0.0 0.0 0.00 0.00 0.00 88 1016.6
20260905151019 52 163 0.0 0.0 0.00 0.00 0.00 89 1016.6
20260905150603 52 163 0.0 0.0 0.00 0.00 0.00 89 1016.6
20260905150103 51 163 0.0 0.0 0.00 0.00 0.00 90 1016.7
20260905150021 50 163 0.0 0.0 0.00 0.00 0.00 90 1016.7
20260905145604 50 163 0.0 0.0 0.00 0.00 0.00 90 1016.7
20260905145103 50 163 0.0 0.0 0.00 0.00 0.00 90 1016.8
20260905145020 49 163 0.0 0.0 0.00 0.00 0.00 90 1016.9
20260905144604 49 163 0.0 0.0 0.00 0.00 0.00 90 1016.9
20260905144104 49 163 0.0 0.0 0.00 0.00 0.00 90 1016.9
20260905143604 48 163 0.0 0.0 0.00 0.00 0.00 90 1016.8
20260905143021 47 163 0.0 0.0 0.00 0.00 0.00 90 1016.8
20260905142603 47 163 0.0 0.0 0.00 0.00 0.00 90 1016.8
20260905142104 47 163 0.0 0.0 0.00 0.00 0.00 90 1016.7
20260905141603 47 163 0.0 0.0 0.00 0.00 0.00 90 1016.7
20260905141020 47 163 0.0 0.0 0.00 0.00 0.00 89 1016.6
20260905140104 47 163 0.0 0.0 0.00 0.00 0.00 89 1016.5
20260905140021 47 163 0.0 0.0 0.00 0.00 0.00 89 1016.5
20260905135604 47 163 0.0 0.0 0.00 0.00 0.00 89 1016.5
20260905135104 47 163 0.0 0.0 0.00 0.00 0.00 89 1016.5
20260905134604 47 163 0.0 0.0 0.00 0.00 0.00 89 1016.5
20260905134104 47 163 0.0 0.0 0.00 0.00 0.00 88 1016.5
20260905133604 47 163 0.0 0.0 0.00 0.00 0.00 88 1016.5
20260905133103 48 163 0.0 0.0 0.00 0.00 0.00 88 1016.4
20260905133020 48 163 0.0 0.0 0.00 0.00 0.00 88 1016.4
20260905132604 48 163 0.0 0.0 0.00 0.00 0.00 88 1016.4
20260905132103 48 163 0.0 0.0 0.00 0.00 0.00 88 1016.4
20260905132019 48 163 0.0 0.0 0.00 0.00 0.00 88 1016.4
20260905131603 48 163 0.0 0.0 0.00 0.00 0.00 88 1016.4
20260905131104 48 163 0.0 0.0 0.00 0.00 0.00 89 1016.3
20260905131020 48 163 0.0 0.0 0.00 0.00 0.00 88 1016.3
20260905130603 48 163 0.0 0.0 0.00 0.00 0.00 88 1016.3
20260905130104 49 163 0.0 0.0 0.00 0.00 0.00 88 1016.3
20260905130020 49 163 0.0 0.0 0.00 0.00 0.00 88 1016.3
20260905125603 49 163 0.0 0.0 0.00 0.00 0.00 88 1016.3
20260905125020 49 163 0.0 0.0 0.00 0.00 0.00 88 1016.2
20260905124104 49 163 0.0 0.0 0.00 0.00 0.00 88 1016.2
20260905124019 49 163 0.0 0.0 0.00 0.00 0.00 89 1016.3
20260905123604 49 163 0.0 0.0 0.00 0.00 0.00 89 1016.3
20260905123104 50 163 0.0 0.0 0.00 0.00 0.00 89 1016.4
20260905123020 50 163 0.0 0.0 0.00 0.00 0.00 89 1016.4
20260905122604 50 163 0.0 0.0 0.00 0.00 0.00 89 1016.4
20260905122103 50 163 0.0 0.0 0.00 0.00 0.00 89 1016.4
20260905122020 50 163 0.0 0.0 0.00 0.00 0.00 89 1016.4
20260905121604 50 163 0.0 0.0 0.00 0.00 0.00 89 1016.4
20260905121103 50 163 0.0 0.0 0.00 0.00 0.00 89 1016.4
20260905121019 50 163 0.0 0.0 0.00 0.00 0.00 89 1016.5
20260905120604 50 163 0.0 0.0 0.00 0.00 0.00 89 1016.5
20260905120104 50 163 0.0 0.0 0.00 0.00 0.00 89 1016.5
20260905120020 50 163 0.0 0.0 0.00 0.00 0.00 89 1016.6
20260905115604 50 163 0.0 0.0 0.00 0.00 0.00 89 1016.6
20260905115103 50 163 0.0 0.0 0.00 0.00 0.00 89 1016.5
20260905115020 50 163 0.0 0.0 0.00 0.00 0.00 89 1016.5
20260905114604 50 163 0.0 0.0 0.00 0.00 0.00 89 1016.5
20260905114104 50 163 0.0 0.0 0.00 0.00 0.00 89 1016.4
20260905114020 50 163 0.0 0.0 0.00 0.00 0.00 89 1016.4
20260905113604 50 163 0.0 0.0 0.00 0.00 0.00 89 1016.4
20260905113103 50 163 0.0 0.0 0.00 0.00 0.00 89 1016.4
20260905113019 50 163 0.0 0.0 0.00 0.00 0.00 88 1016.3
20260905112104 50 163 0.0 0.0 0.00 0.00 0.00 88 1016.3
20260905111603 50 163 0.0 0.0 0.00 0.00 0.00 88 1016.3
20260905111104 50 163 0.0 0.0 0.00 0.00 0.00 88 1016.3
20260905111020 50 163 0.0 0.0 0.00 0.00 0.00 88 1016.2
20260905110604 50 163 0.0 0.0 0.00 0.00 0.00 88 1016.2
20260905110104 50 163 0.0 0.0 0.00 0.00 0.00 88 1016.2
20260905110020 50 163 0.0 0.0 0.00 0.00 0.00 88 1016.2
20260905105603 50 163 0.0 0.0 0.00 0.00 0.00 88 1016.2
20260905105104 50 163 0.0 0.0 0.00 0.00 0.00 88 1016.2
20260905104603 50 163 0.0 0.0 0.00 0.00 0.00 87 1016.3
20260905104104 50 163 0.0 0.0 0.00 0.00 0.00 87 1016.2
20260905103604 50 163 0.0 0.0 0.00 0.00 0.00 87 1016.3
20260905103104 50 163 0.0 0.0 0.00 0.00 0.00 87 1016.2
20260905102603 50 163 0.0 0.0 0.00 0.00 0.00 87 1016.3
20260905102019 50 163 0.0 0.0 0.00 0.00 0.00 87 1016.2
20260905101604 50 163 0.0 0.0 0.00 0.00 0.00 87 1016.2
20260905101103 50 163 0.0 0.0 0.00 0.00 0.00 87 1016.2
20260905101020 50 163 0.0 0.0 0.00 0.00 0.00 87 1016.2
20260905100604 50 163 0.0 0.0 0.00 0.00 0.00 87 1016.2
20260905100104 50 163 0.0 0.0 0.00 0.00 0.00 87 1016.2
20260905100020 50 163 0.0 0.0 0.00 0.00 0.00 87 1016.2
20260905095604 50 163 0.0 0.0 0.00 0.00 0.00 87 1016.2
20260905095104 50 163 0.0 0.0 0.00 0.00 0.00 86 1016.2
20260905095019 50 163 0.0 0.0 0.00 0.00 0.00 86 1016.2
20260905094603 50 163 0.0 0.0 0.00 0.00 0.00 86 1016.2
20260905093604 50 163 0.0 0.0 0.00 0.00 0.00 86 1016.2
20260905093103 50 163 0.0 0.0 0.00 0.00 0.00 86 1016.1
20260905093020 50 163 0.0 0.0 0.00 0.00 0.00 86 1016.0
20260905092603 50 163 0.0 0.0 0.00 0.00 0.00 86 1016.0
20260905092019 50 163 0.0 0.0 0.00 0.00 0.00 85 1016.2
20260905091604 50 163 0.0 0.0 0.00 0.00 0.00 85 1016.2
20260905091019 50 163 0.0 0.0 0.00 0.00 0.00 85 1016.2
20260905090604 50 163 0.0 0.0 0.00 0.00 0.00 85 1016.2
20260905090104 51 163 0.0 0.0 0.00 0.00 0.00 85 1016.3
20260905085603 51 163 0.0 0.0 0.00 0.00 0.00 85 1016.3
20260905085104 51 163 0.0 0.0 0.00 0.00 0.00 85 1016.2
20260905085019 51 163 0.0 0.0 0.00 0.00 0.00 84 1016.2
20260905084604 51 163 0.0 0.0 0.00 0.00 0.00 84 1016.2
20260905084020 51 163 0.0 0.0 0.00 0.00 0.00 84 1016.2
20260905083604 51 163 0.0 0.0 0.00 0.00 0.00 84 1016.2
20260905082604 51 163 0.0 0.0 0.00 0.00 0.00 83 1016.2
20260905082103 51 163 0.0 0.0 0.00 0.00 0.00 83 1016.2
20260905082019 52 163 0.0 0.0 0.00 0.00 0.00 83 1016.2
20260905081603 52 163 0.0 0.0 0.00 0.00 0.00 83 1016.2
20260905081104 52 163 0.0 0.0 0.00 0.00 0.00 83 1016.2
20260905081020 52 163 0.0 0.0 0.00 0.00 0.00 83 1016.1
20260905080104 52 163 0.0 0.0 0.00 0.00 0.00 82 1016.2
20260905080020 52 163 0.0 0.0 0.00 0.00 0.00 82 1016.1
20260905075103 53 163 0.0 0.0 0.00 0.00 0.00 82 1016.2
20260905075020 53 163 0.0 0.0 0.00 0.00 0.00 81 1016.2
20260905074603 53 163 0.0 0.0 0.00 0.00 0.00 81 1016.2
20260905074104 53 163 0.0 0.0 0.00 0.00 0.00 81 1016.1
20260905074020 53 163 0.0 0.0 0.00 0.00 0.00 81 1016.1
20260905073104 53 163 0.0 0.0 0.00 0.00 0.00 81 1016.0
20260905073019 53 163 0.0 0.0 0.00 0.00 0.00 81 1015.9
20260905072604 53 163 0.0 0.0 0.00 0.00 0.00 81 1015.9
20260905072104 53 163 0.0 0.0 0.00 0.00 0.00 81 1016.0
20260905071604 54 163 0.0 0.0 0.00 0.00 0.00 81 1016.0
20260905071104 54 163 0.0 0.0 0.00 0.00 0.00 80 1016.0
20260905070604 54 163 0.0 0.0 0.00 0.00 0.00 80 1016.0
20260905070104 54 163 0.0 0.0 0.00 0.00 0.00 80 1016.0
20260905070019 54 163 0.0 0.0 0.00 0.00 0.00 80 1015.9
20260905065604 54 163 0.0 0.0 0.00 0.00 0.00 80 1015.9
20260905065104 54 163 0.0 0.0 0.00 0.00 0.00 80 1015.9
20260905065020 54 163 0.0 0.0 0.00 0.00 0.00 80 1015.9
20260905064604 54 163 0.0 0.0 0.00 0.00 0.00 80 1015.9
20260905064104 54 163 0.0 0.0 0.00 0.00 0.00 79 1015.9
20260905064019 54 163 0.0 0.0 0.00 0.00 0.00 79 1015.9
20260905063603 54 163 0.0 0.0 0.00 0.00 0.00 79 1015.9
20260905063020 55 163 0.0 0.0 0.00 0.00 0.00 79 1015.8
20260905062605 55 163 0.0 0.0 0.00 0.00 0.00 79 1015.8
20260905062103 55 163 0.0 0.0 0.00 0.00 0.00 79 1015.8
20260905062020 55 163 0.0 0.0 0.00 0.00 0.00 78 1015.8
20260905061604 55 163 0.0 0.0 0.00 0.00 0.00 78 1015.8
20260905061103 55 163 0.0 0.0 0.00 0.00 0.00 78 1016.0
20260905061020 55 163 0.0 0.0 0.00 0.00 0.00 79 1016.0
20260905060604 55 163 0.0 0.0 0.00 0.00 0.00 79 1016.0
20260905060104 55 163 0.0 0.0 0.00 0.00 0.00 78 1015.9
20260905055604 55 163 0.0 0.0 0.00 0.00 0.00 77 1015.9
20260905055103 55 163 0.0 0.0 0.00 0.00 0.00 77 1015.9
20260905055020 55 163 0.0 0.0 0.00 0.00 0.00 77 1015.8
20260905054604 55 163 0.0 0.0 0.00 0.00 0.00 77 1015.8
20260905054104 55 163 0.0 0.0 0.00 0.00 0.00 76 1015.7
20260905054020 55 163 0.0 0.0 0.00 0.00 0.00 76 1015.8
20260905053604 55 163 0.0 0.0 0.00 0.00 0.00 76 1015.8
20260905053104 55 163 0.0 0.0 0.00 0.00 0.00 76 1015.8
20260905053020 56 163 0.0 0.0 0.00 0.00 0.00 75 1016.2
20260905052604 56 163 0.0 0.0 0.00 0.00 0.00 75 1016.2
20260905052103 56 163 0.0 0.0 0.00 0.00 0.00 75 1015.8
20260905052019 56 163 0.0 0.0 0.00 0.00 0.00 75 1015.8
20260905051103 56 163 0.0 0.0 0.00 0.00 0.00 75 1015.8
20260905051019 56 163 0.0 0.0 0.00 0.00 0.00 75 1015.7
20260905050604 56 163 0.0 0.0 0.00 0.00 0.00 75 1015.7
20260905050104 56 163 0.0 0.0 0.00 0.00 0.00 74 1015.8
20260905050019 56 164 0.0 0.0 0.00 0.00 0.00 74 1015.8
20260905045604 56 164 0.0 0.0 0.00 0.00 0.00 74 1015.8
20260905045020 57 213 0.0 0.0 0.00 0.00 0.00 74 1015.8
20260905044604 57 213 0.0 0.0 0.00 0.00 0.00 74 1015.8
20260905044104 57 213 0.0 0.0 0.00 0.00 0.00 74 1015.7
20260905044019 57 213 0.0 0.0 0.00 0.00 0.00 74 1015.7
20260905043603 57 213 0.0 0.0 0.00 0.00 0.00 74 1015.7
20260905043104 57 213 0.0 0.0 0.00 0.00 0.00 74 1015.7
20260905043020 58 213 0.0 0.0 0.00 0.00 0.00 73 1015.6
20260905042603 58 213 0.0 0.0 0.00 0.00 0.00 73 1015.6
20260905042020 58 213 0.0 0.0 0.00 0.00 0.00 72 1015.5
20260905041104 58 213 0.0 0.0 0.00 0.00 0.00 72 1015.4
20260905040603 58 213 0.0 0.0 0.00 0.00 0.00 72 1015.4
20260905040104 58 213 0.0 0.0 0.00 0.00 0.00 72 1015.3
20260905040020 59 213 0.0 0.0 0.00 0.00 0.00 71 1015.2
20260905035604 59 213 0.0 0.0 0.00 0.00 0.00 71 1015.2
20260905035104 59 213 0.0 0.0 0.00 0.00 0.00 70 1015.1
20260905035020 59 213 0.0 0.0 0.00 0.00 0.00 71 1015.1
20260905034603 59 213 0.0 0.0 0.00 0.00 0.00 71 1015.1
20260905034104 59 213 0.0 0.0 0.00 0.00 0.00 70 1015.0
20260905034019 59 213 0.0 0.0 0.00 0.00 0.00 70 1015.0
20260905033604 59 213 0.0 0.0 0.00 0.00 0.00 70 1015.0
20260905033104 59 213 0.0 0.0 0.00 0.00 0.00 70 1014.9
20260905033020 60 213 0.0 0.0 0.00 0.00 0.00 70 1014.8
20260905032604 60 213 0.0 0.0 0.00 0.00 0.00 70 1014.8
20260905032103 60 213 0.0 0.0 0.00 0.00 0.00 69 1014.7
20260905032019 60 213 0.0 0.0 0.00 0.00 0.00 68 1014.7
20260905031604 60 213 0.0 0.0 0.00 0.00 0.00 68 1014.7
20260905031104 60 213 0.0 0.0 0.00 0.00 0.00 68 1014.7
20260905030604 61 213 0.0 0.0 0.00 0.00 0.00 67 1014.6
20260905030104 61 213 0.0 0.0 0.00 0.00 0.00 67 1014.6
20260905030020 61 213 0.0 0.0 0.00 0.00 0.00 66 1014.5
20260905025603 61 213 0.0 0.0 0.00 0.00 0.00 66 1014.5
20260905025104 61 213 0.0 0.0 0.00 0.00 0.00 67 1014.5
20260905025020 62 213 0.0 0.0 0.00 0.00 0.00 68 1014.4
20260905024604 62 213 0.0 0.0 0.00 0.00 0.00 68 1014.4
20260905024104 62 213 0.0 0.0 0.00 0.00 0.00 68 1014.5
20260905024020 62 213 0.0 0.0 0.00 0.00 0.00 66 1014.4
20260905023604 62 213 0.0 0.0 0.00 0.00 0.00 66 1014.4
20260905023104 62 213 0.0 0.0 0.00 0.00 0.00 64 1014.4
20260905023021 63 213 0.0 0.0 0.00 0.00 0.00 63 1014.3
20260905022604 63 213 0.0 0.0 0.00 0.00 0.00 63 1014.3
20260905022019 63 213 0.0 0.0 0.00 0.00 0.00 62 1014.2
20260905021604 63 213 0.0 0.0 0.00 0.00 0.00 62 1014.2
20260905021103 63 213 0.0 0.0 0.00 0.00 0.00 63 1014.2
20260905020603 63 213 0.0 3.0 0.00 0.00 0.00 63 1014.1
20260905020104 63 255 0.0 0.0 0.00 0.00 0.00 63 1014.0
20260905020021 63 288 0.0 0.0 0.00 0.00 0.00 63 1014.0
20260905015603 63 288 0.0 0.0 0.00 0.00 0.00 63 1014.0
20260905015104 63 335 0.0 0.0 0.00 0.00 0.00 64 1014.0
20260905015019 63 340 0.0 0.0 0.00 0.00 0.00 64 1014.1
20260905014603 63 340 0.0 0.0 0.00 0.00 0.00 64 1014.1
20260905014019 63 340 0.0 1.0 0.00 0.00 0.00 62 1014.0
20260905013604 63 340 0.0 1.0 0.00 0.00 0.00 62 1014.0
20260905013103 64 303 0.0 0.0 0.00 0.00 0.00 61 1014.1
20260905012604 64 214 0.0 3.0 0.00 0.00 0.00 61 1014.0
20260905012103 64 238 0.0 3.0 0.00 0.00 0.00 60 1014.0
20260905012020 64 224 1.0 3.0 0.00 0.00 0.00 60 1013.9
20260905011103 64 257 0.0 0.0 0.00 0.00 0.00 63 1013.9
20260905011020 64 311 0.0 0.0 0.00 0.00 0.00 65 1013.9
20260905010103 64 316 0.0 3.0 0.00 0.00 0.00 64 1014.0
20260905010021 64 324 0.0 0.0 0.00 0.00 0.00 63 1013.9
20260905005603 64 324 0.0 0.0 0.00 0.00 0.00 63 1013.9
20260905005104 64 351 0.0 2.0 0.00 0.00 0.00 62 1013.9
20260905005019 64 355 3.0 10.0 0.00 0.00 0.00 62 1013.8
20260905004103 65 0 2.0 5.0 0.00 0.00 0.00 62 1013.7
20260905004021 65 352 2.0 6.0 0.00 0.00 0.00 61 1013.6
20260905003021 65 350 0.0 6.0 0.00 0.00 0.00 62 1013.7
20260905002104 65 352 1.0 6.0 0.00 0.00 0.00 61 1013.7
20260905002020 65 0 4.0 8.0 0.00 0.00 0.00 60 1013.6
20260905001603 65 0 4.0 8.0 0.00 0.00 0.00 60 1013.6
20260905001104 65 341 3.0 8.0 0.00 0.00 0.00 60 1013.6
20260905000604 66 347 2.0 3.0 0.00 0.00 0.00 60 1013.6
20260905000104 66 353 2.0 9.0 0.00 0.00 0.00 59 1013.5
20260904235604 66 1 1.0 5.0 0.00 0.00 0.00 58 1013.4
20260904235104 66 218 1.0 3.0 0.00 0.00 0.00 57 1013.5
20260904235020 66 325 0.0 2.0 0.00 0.00 0.00 58 1013.4
20260904234604 66 325 0.0 2.0 0.00 0.00 0.00 58 1013.4
20260904234104 66 335 1.0 5.0 0.00 0.00 0.00 58 1013.4
20260904234020 66 270 0.0 3.0 0.00 0.00 0.00 58 1013.3
20260904233604 66 270 0.0 3.0 0.00 0.00 0.00 58 1013.3
20260904233104 66 280 2.0 6.0 0.00 0.00 0.00 57 1013.3
20260904233021 66 282 1.0 3.0 0.00 0.00 0.00 56 1013.3
20260904232104 67 239 1.0 9.0 0.00 0.00 0.00 55 1013.2
20260904232020 67 223 2.0 5.0 0.00 0.00 0.00 54 1013.2
20260904231104 67 206 2.0 6.0 0.00 0.00 0.00 55 1013.2
20260904231019 67 269 0.0 3.0 0.00 0.00 0.00 58 1013.2
20260904230603 67 269 0.0 3.0 0.00 0.00 0.00 58 1013.2
20260904230104 67 7 1.0 3.0 0.00 0.00 0.00 56 1013.1
20260904225604 67 12 2.0 5.0 0.00 0.00 0.00 55 1013.1
20260904225104 66 332 1.0 7.0 0.00 0.00 0.00 55 1013.1
20260904225020 66 261 0.0 1.0 0.00 0.00 0.00 56 1013.0
20260904224604 66 261 0.0 1.0 0.00 0.00 0.00 56 1013.0
20260904224104 66 259 0.0 3.0 0.00 0.00 0.00 56 1013.0
20260904224020 66 247 1.0 3.0 0.00 0.00 0.00 55 1013.1
20260904223604 66 247 1.0 3.0 0.00 0.00 0.00 55 1013.1
20260904223104 66 261 0.0 3.0 0.00 0.00 0.00 56 1013.1
20260904223021 65 340 0.0 3.0 0.00 0.00 0.00 58 1013.0
20260904222604 65 340 0.0 3.0 0.00 0.00 0.00 58 1013.0
20260904222104 66 340 0.0 3.0 0.00 0.00 0.00 60 1013.1
20260904221604 65 345 0.0 0.0 0.00 0.00 0.00 57 1013.0
20260904221104 66 300 0.0 1.0 0.00 0.00 0.00 57 1013.1
20260904221021 66 12 0.0 5.0 0.00 0.00 0.00 58 1013.1
20260904220604 66 12 0.0 5.0 0.00 0.00 0.00 58 1013.1
20260904220106 66 0 3.0 5.0 0.00 0.00 0.00 57 1013.1
20260904215603 66 338 2.0 3.0 0.00 0.00 0.00 56 1013.1
20260904215103 66 26 2.0 6.0 0.00 0.00 0.00 57 1013.1
20260904215022 66 35 0.0 3.0 0.00 0.00 0.00 54 1013.1
20260904214103 66 22 2.0 5.0 0.00 0.00 0.00 55 1013.0
20260904213603 65 19 2.0 3.0 0.00 0.00 0.00 56 1013.1
20260904213103 64 346 2.0 3.0 0.00 0.00 0.00 57 1013.0
20260904213025 64 332 0.0 0.0 0.00 0.00 0.00 58 1013.0
20260904212603 64 332 0.0 0.0 0.00 0.00 0.00 58 1013.0
20260904212103 64 253 0.0 3.0 0.00 0.00 0.00 59 1013.0
20260904211604 65 4 0.0 0.0 0.00 0.00 0.00 58 1013.0
20260904211104 65 355 2.0 3.0 0.00 0.00 0.00 59 1013.0
20260904211022 65 342 2.0 5.0 0.00 0.00 0.00 59 1013.0
20260904210603 65 342 2.0 5.0 0.00 0.00 0.00 59 1013.0
20260904210104 64 19 0.0 3.0 0.00 0.00 0.00 59 1013.0
20260904210024 64 328 0.0 5.0 0.00 0.00 0.00 63 1013.2
20260904205104 64 56 0.0 0.0 0.00 0.00 0.00 62 1013.1
20260904205023 64 63 0.0 0.0 0.00 0.00 0.00 65 1013.1
20260904204604 64 63 0.0 0.0 0.00 0.00 0.00 65 1013.1
20260904204103 64 63 0.0 0.0 0.00 0.00 0.00 63 1013.1
20260904204022 64 65 0.0 0.0 0.00 0.00 0.00 66 1013.1
20260904203604 64 65 0.0 0.0 0.00 0.00 0.00 66 1013.1
20260904203104 63 66 1.0 2.0 0.00 0.00 0.00 62 1013.1
20260904203024 63 53 0.0 3.0 0.00 0.00 0.00 64 1013.1
20260904202103 63 52 1.0 3.0 0.00 0.00 0.00 63 1013.1
20260904202022 63 59 1.0 3.0 0.00 0.00 0.00 63 1013.2
20260904201604 63 59 1.0 3.0 0.00 0.00 0.00 63 1013.2
20260904201022 63 62 0.0 2.0 0.00 0.00 0.00 62 1013.1
20260904200603 63 62 0.0 2.0 0.00 0.00 0.00 62 1013.1
20260904200025 62 55 0.0 0.0 0.00 0.00 0.00 64 1013.2
20260904195604 62 55 0.0 0.0 0.00 0.00 0.00 64 1013.2
20260904195104 62 53 0.0 0.0 0.00 0.00 0.00 65 1013.3
20260904195022 62 54 0.0 0.0 0.00 0.00 0.00 67 1013.4
20260904194604 62 54 0.0 0.0 0.00 0.00 0.00 67 1013.4
20260904194103 62 58 0.0 0.0 0.00 0.00 0.00 65 1013.4
20260904194022 62 59 1.0 3.0 0.00 0.00 0.00 66 1013.4
20260904193603 62 59 1.0 3.0 0.00 0.00 0.00 66 1013.4
20260904193104 61 292 0.0 0.0 0.00 0.00 0.00 66 1013.4
20260904193024 61 289 0.0 0.0 0.00 0.00 0.00 66 1013.6
20260904192604 61 289 0.0 0.0 0.00 0.00 0.00 66 1013.6
20260904192104 62 288 0.0 0.0 0.00 0.00 0.00 66 1013.6
20260904192022 61 277 0.0 2.0 0.00 0.00 0.00 67 1013.5
20260904191604 61 277 0.0 2.0 0.00 0.00 0.00 67 1013.5
20260904191103 62 272 1.0 3.0 0.00 0.00 0.00 67 1013.6
20260904191023 62 350 2.0 3.0 0.00 0.00 0.00 68 1013.6
20260904190604 62 350 2.0 3.0 0.00 0.00 0.00 68 1013.6
20260904190104 61 4 0.0 2.0 0.00 0.00 0.00 68 1013.7
20260904190025 60 11 2.0 3.0 0.00 0.00 0.00 70 1013.7
20260904185604 60 11 2.0 3.0 0.00 0.00 0.00 70 1013.7
20260904185103 59 341 0.0 0.0 0.00 0.00 0.00 71 1013.8
20260904185023 59 342 0.0 3.0 0.00 0.00 0.00 72 1013.7
20260904184022 59 339 0.0 0.0 0.00 0.00 0.00 73 1013.7
20260904183604 59 339 0.0 0.0 0.00 0.00 0.00 73 1013.7
20260904183103 59 347 0.0 0.0 0.00 0.00 0.00 72 1013.7
20260904183025 59 334 0.0 0.0 0.00 0.00 0.00 73 1013.7